Location: Goettingen
(51.5300°N, 9.9433°E)
Time: 21:27:19
(UTC+02:00)

ISS - Pass Details

Date: 22 May 2017
Orbit: 402 x 409 km, 51.6° (Epoch: 25 May)

Event Time Altitude Azimuth Distance (km) Brightness Sun altitude
Exits shadow 23:42:39 16° 97° (E) 1,176 -1.8 -15.0°
Drops below altitude 10° 23:43:30 10° 88° (E) 1,469 -1.2 -15.1°
Sets 23:45:44 0° 77° (ENE) 2,331 -0.1 -15.2°
